Probability
0 0 0 0 0 0 0 0 0 1 5 14 23 29 33 37 41 42 39 37 34 33 36 37 37 39 42 39 32 29 30 30 28 25 22 20 17 15 16 13 9 8 8 8
0 0 0 0 0 0 0 0 0 1 5 14 24 31 34 37 38 39 39 39 37 36 36 38 38 38 39 35 30 28 29 28 25 23 22 22 20 18 15 13 10 9 9 9
0 0 0 0 0 0 1 1 1 3 9 18 28 34 35 35 34 34 37 39 39 38 38 38 38 37 35 32 28 27 27 25 23 22 22 23 22 19 15 12 12 11 10 11
0 0 0 0 0 2 3 4 5 9 16 25 32 36 33 31 30 31 34 38 38 38 38 37 37 35 33 31 28 26 25 24 23 23 22 22 22 19 14 12 12 11 10 10
0 0 0 0 1 3 6 10 14 20 26 32 36 36 30 27 28 30 34 38 38 37 37 37 36 35 32 29 27 25 25 25 24 23 22 21 20 16 11 10 10 9 9 9
0 0 0 1 2 4 8 15 21 27 33 37 37 34 29 29 33 35 38 41 42 41 39 37 36 35 32 28 25 25 26 25 24 22 20 19 17 12 8 7 7 7 7 8
0 0 0 3 5 5 8 14 21 29 36 37 35 33 34 38 41 42 44 48 50 48 45 41 38 36 33 27 24 24 24 24 22 20 18 15 13 9 6 6 6 6 6 5
0 0 2 6 10 9 11 16 22 30 36 37 36 38 43 46 47 48 50 54 56 53 48 44 41 37 31 25 22 23 22 21 20 17 14 11 9 7 6 5 6 6 6 4
3 4 7 13 15 15 17 22 28 32 37 41 42 44 47 50 51 52 54 55 56 52 47 43 39 33 27 22 22 23 22 20 18 14 9 6 6 6 6 6 6 6 6 4
11 12 16 19 20 20 22 25 30 34 39 43 44 44 47 49 50 52 51 50 50 48 44 40 35 28 24 23 24 24 23 19 15 11 6 4 4 4 5 6 7 7 6 4
16 16 17 19 20 20 22 25 28 32 38 43 44 44 45 46 47 46 44 42 42 44 43 39 35 28 24 24 25 24 22 18 13 9 5 3 2 2 3 5 7 7 5 4
13 13 14 16 18 19 21 23 24 29 35 41 43 44 43 43 43 41 39 37 38 41 41 38 34 29 24 23 23 23 20 16 12 8 5 3 2 1 2 4 4 4 3 3
10 12 15 16 18 20 22 23 25 29 35 40 40 39 38 37 37 37 36 35 37 38 37 35 32 27 22 20 21 21 18 14 10 7 6 4 3 2 3 3 2 1 1 1
11 13 16 18 19 22 24 25 28 32 36 38 36 33 31 31 32 34 34 35 36 36 35 32 29 25 20 18 19 18 15 11 8 7 6 4 3 3 3 3 2 1 0 0
11 12 14 17 19 21 24 27 30 33 35 35 33 31 29 28 29 31 33 34 35 34 33 30 27 24 20 18 17 15 12 9 7 6 6 4 3 3 3 3 3 1 0 0
8 9 11 14 15 18 22 25 28 30 30 30 30 30 29 27 27 28 30 31 31 31 30 28 25 21 19 18 14 10 9 7 5 5 5 5 4 3 3 3 3 2 1 0
7 7 7 8 9 13 17 20 24 27 27 27 28 27 25 24 24 25 26 26 27 28 28 26 23 19 17 15 11 7 5 5 4 4 4 4 3 3 3 3 3 3 2 1
5 5 4 3 3 6 11 15 19 23 24 25 26 25 20 19 20 21 23 23 24 25 25 23 19 15 13 11 9 6 4 3 3 3 3 3 3 3 3 3 3 3 2 1
5 5 4 2 1 4 7 10 13 17 18 20 23 22 18 15 16 19 20 20 19 19 19 17 13 11 11 9 7 6 5 4 3 3 3 3 3 3 3 3 3 3 2 1
5 6 6 4 3 4 7 8 11 13 14 15 18 20 17 14 13 16 16 15 14 13 12 11 10 10 9 7 7 7 6 5 4 4 3 3 3 3 3 3 3 3 1 0
5 6 6 6 5 5 6 7 9 11 12 12 14 15 14 11 11 12 12 12 11 10 9 9 10 10 8 7 7 8 7 6 6 5 4 4 3 3 3 3 3 2 1 0
4 5 6 6 6 5 6 6 8 10 11 11 11 10 9 8 8 10 10 10 8 7 7 7 8 8 8 8 9 9 8 7 6 6 6 5 4 4 3 3 3 2 1 0
4 4 6 5 5 5 6 7 8 9 10 11 9 8 7 7 7 7 7 7 5 3 3 4 5 6 7 8 9 9 9 7 7 6 6 6 6 5 4 3 3 2 1 0
4 5 5 5 4 5 7 8 8 7 8 9 9 8 8 7 6 4 4 3 1 1 1 1 2 3 5 7 8 9 9 8 7 6 6 6 6 6 5 4 3 2 1 0
6 6 6 5 5 6 6 7 7 6 6 5 6 7 7 5 4 2 1 0 0 0 0 0 0 1 3 4 6 7 7 7 7 6 6 6 6 6 5 3 1 1 0 0
5 5 6 6 6 6 6 5 6 6 5 3 3 4 4 2 1 1 0 0 0 0 0 0 0 1 2 3 5 6 6 6 6 6 6 6 5 4 4 3 1 1 0 0
2 3 5 7 7 7 6 5 6 7 5 2 1 1 2 1 0 0 0 0 0 0 0 0 0 0 1 3 5 6 6 6 6 6 6 5 4 4 3 3 2 2 1 0
Wind_Speed
4 4 3 3 5 5 5 8 8 8 9 10 10 10 9 8 9 10 9 9 9 8 7 7 7 7 7 7 7 7 7 6 5 4 4 4 4 4 4 4 4 3 4 3
1 1 0 2 5 5 5 5 5 5 5 6 6 7 7 9 10 11 10 9 9 9 9 9 9 8 8 7 7 7 7 6 5 5 5 4 4 4 4 4 3 4 4 3
1 2 3 4 6 5 4 4 7 7 7 5 7 10 11 11 10 10 11 10 10 10 9 9 8 8 8 8 7 7 7 6 5 5 5 4 5 5 4 3 3 4 3 4
2 2 4 10 5 4 4 3 4 6 7 9 9 7 6 9 10 9 9 10 9 8 8 8 7 7 7 7 7 7 6 6 5 5 5 4 5 5 4 3 3 3 3 3
4 3 4 7 4 3 4 2 3 8 8 7 8 7 2 3 7 10 10 9 9 9 8 8 8 8 8 8 7 7 6 6 5 6 6 5 5 4 4 4 4 3 3 4
5 4 6 8 6 2 6 2 3 8 11 9 8 5 5 5 5 6 7 7 7 7 7 8 8 9 9 8 7 7 7 6 5 6 6 6 5 4 4 4 4 4 4 3
4 3 7 7 5 3 5 8 4 8 10 9 6 7 7 7 6 7 8 7 7 8 7 8 9 9 9 8 7 6 6 6 5 5 5 5 4 4 4 4 4 4 4 3
4 3 8 5 2 4 7 4 5 6 7 7 5 6 6 6 6 6 7 8 9 8 7 7 8 9 9 8 7 7 7 7 6 5 5 5 5 4 4 5 5 4 3 2
7 8 7 3 2 2 3 4 4 5 5 9 8 7 6 6 5 5 7 7 7 8 7 6 7 8 9 8 8 8 7 6 5 5 4 4 5 5 4 4 4 3 3 2
1 2 2 2 3 4 3 3 4 6 7 8 8 8 7 6 5 4 5 6 6 8 8 7 6 7 8 8 9 9 8 7 6 5 4 4 3 3 4 4 4 4 3 3
1 1 4 4 4 3 4 5 5 5 5 6 7 7 7 6 6 5 5 5 6 8 8 7 7 7 7 8 9 9 8 6 6 5 5 4 3 2 2 3 4 5 4 4
4 5 3 3 2 2 4 3 4 5 4 4 6 6 5 5 5 6 6 6 6 7 7 7 7 7 7 8 9 9 7 6 5 5 4 4 4 3 5 3 2 4 5 5
4 4 3 2 1 2 3 2 3 4 4 4 5 5 6 4 3 5 6 7 8 8 8 8 7 6 6 7 8 8 8 7 5 5 5 5 5 5 3 2 4 3 4 6
2 3 2 1 1 2 3 3 4 3 3 3 4 5 5 3 4 6 7 7 7 8 8 8 7 7 7 7 8 7 7 8 7 6 5 5 5 5 5 5 3 1 1 2
1 3 4 2 1 2 2 4 5 4 3 3 3 4 4 5 5 5 6 6 7 8 7 7 7 7 6 7 8 7 6 5 5 5 5 5 5 5 4 5 4 3 1 1
0 3 4 3 2 2 3 4 4 3 2 2 3 2 3 5 5 5 5 6 8 8 7 6 7 6 6 7 7 6 5 7 7 5 5 5 5 5 5 5 4 4 4 3
3 2 2 1 1 1 2 3 3 3 2 2 2 2 4 6 5 5 5 5 5 6 5 5 6 6 6 7 7 5 4 6 7 6 5 5 5 5 5 5 5 5 4 5
3 4 4 4 2 1 1 2 3 4 3 3 3 3 4 6 6 5 5 6 5 4 3 4 5 6 6 6 5 4 5 4 4 5 5 5 5 5 5 5 6 6 4 4
2 3 3 2 1 1 1 2 2 3 3 3 4 4 4 4 5 6 6 6 6 4 3 3 6 6 5 6 6 4 5 5 4 4 4 5 5 4 4 5 5 5 5 4
2 2 2 2 1 1 1 1 2 3 3 3 4 4 4 3 4 5 6 4 3 3 4 4 5 4 4 5 6 4 5 5 5 4 4 4 4 4 4 5 5 5 5 4
2 2 2 2 1 1 1 2 3 3 2 3 5 5 5 4 4 5 5 3 2 3 4 5 4 3 3 4 5 4 4 4 4 4 4 5 4 4 4 4 4 4 4 4
2 2 1 1 1 0 0 1 2 2 2 2 4 4 4 4 4 3 3 2 2 4 4 3 2 4 5 5 3 4 4 4 4 4 4 4 4 4 4 4 4 4 4 4
2 1 1 1 1 1 1 1 2 2 2 3 4 4 4 4 4 4 2 2 3 5 4 3 4 6 6 3 3 3 4 4 4 4 4 4 4 4 4 4 4 4 4 4
1 1 1 1 2 2 1 0 1 1 2 2 3 4 4 3 2 1 2 4 5 5 3 4 6 6 5 2 3 3 3 3 3 3 3 3 3 3 4 4 4 3 3 4
1 1 1 2 2 1 1 1 2 1 2 2 2 2 2 2 3 2 3 4 6 5 3 4 6 5 3 3 3 3 3 3 3 3 3 3 3 3 3 3 3 3 3 3
1 1 0 1 2 2 2 2 2 1 2 2 2 2 2 2 3 3 3 4 6 5 4 3 3 4 3 3 3 4 4 4 4 3 3 3 3 3 3 3 4 3 3 3
2 1 1 1 1 0 1 2 2 2 2 3 2 2 2 2 3 3 4 3 3 3 3 3 3 3 3 3 3 3 3 3 3 3 3 3 3 3 3 4 3 3 3 3
Wind_Direction
193 203 186 202 228 214 180 180 180 211 198 208 189 171 158 144 140 138 142 145 147 149 151 150 153 158 156 154 153 150 146 147 151 148 136 124 120 117 111 106 102 99 94 82
337 352 194 267 244 225 211 190 182 178 222 215 174 144 141 144 146 151 154 156 156 155 156 160 163 161 155 151 151 147 147 152 149 138 131 128 125 118 108 99 90 87 87 82
243 318 44 267 232 212 216 206 167 187 213 167 152 160 162 160 159 160 162 161 162 165 167 166 165 159 156 152 147 148 150 151 149 148 143 141 132 122 118 115 104 92 83 80
123 77 217 242 241 188 182 215 176 165 165 163 166 166 162 159 157 160 162 158 162 165 163 160 155 150 146 140 146 151 154 156 156 150 147 144 138 136 135 122 112 101 87 83
118 151 268 288 274 181 162 246 167 144 142 135 126 94 74 181 166 168 166 164 167 165 161 154 152 150 142 145 148 150 153 156 154 148 146 144 143 140 134 121 106 99 98 90
122 148 216 247 268 194 113 233 215 143 147 147 124 128 211 203 171 151 147 148 154 149 144 151 155 149 146 151 153 159 160 157 149 146 147 148 147 139 131 125 120 108 93 89
138 181 253 254 283 91 141 219 210 154 153 151 158 181 185 170 158 155 145 144 150 148 152 159 154 147 150 154 165 162 148 141 138 140 142 142 135 134 132 126 117 108 101 85
143 175 250 285 10 157 203 200 160 148 146 142 144 136 141 149 153 151 147 151 153 151 152 150 151 151 155 163 161 143 138 137 138 140 139 132 127 127 130 133 126 121 112 91
181 207 235 258 179 198 149 134 138 138 138 134 131 136 141 145 147 152 152 153 151 148 146 149 157 157 160 162 148 141 139 140 141 135 126 131 136 140 134 133 134 137 134 130
154 267 289 19 52 45 90 124 139 137 134 136 140 141 134 136 137 147 150 149 148 145 148 155 156 154 158 152 148 145 147 147 144 138 131 125 131 141 145 151 150 150 151 155
133 290 6 5 31 53 72 90 96 100 116 134 133 138 141 146 150 156 155 155 153 154 155 158 152 150 152 151 149 148 151 151 148 144 141 132 119 115 152 169 177 169 173 170
206 218 178 247 291 81 93 104 115 105 88 114 129 137 142 152 162 160 158 151 149 149 149 150 148 151 154 154 154 153 157 159 158 153 149 143 134 96 46 69 129 166 170 166
205 209 193 230 317 53 83 96 107 110 129 143 144 145 141 150 168 158 154 152 155 155 153 151 149 151 157 157 158 163 165 164 161 161 160 160 157 151 138 54 57 88 146 163
172 116 80 39 49 43 78 86 85 86 107 141 145 133 129 136 147 153 157 160 154 147 149 151 153 162 165 161 161 165 165 167 167 169 170 170 170 168 162 158 156 114 44 169
12 130 142 143 55 65 80 84 78 72 79 83 96 119 132 135 144 151 146 142 138 140 149 155 161 172 170 163 161 164 166 167 168 168 171 170 167 165 163 162 159 157 139 68
191 93 102 116 138 117 89 91 99 97 101 103 95 103 133 133 135 130 127 137 145 152 159 161 167 173 164 157 155 159 168 171 167 167 168 167 167 166 166 166 167 172 178 178
119 115 109 129 136 124 135 136 138 133 127 136 138 147 135 125 123 128 132 135 142 148 154 161 168 165 161 160 157 160 165 171 170 167 170 170 169 171 172 171 175 181 189 185
170 172 176 177 180 185 158 135 125 122 137 157 144 139 133 139 151 155 146 128 119 126 152 165 162 156 159 162 160 161 163 169 169 169 169 169 169 171 170 173 178 179 180 181
150 154 158 157 173 168 172 168 151 143 148 146 141 143 143 150 145 141 136 133 142 154 174 163 156 158 163 168 161 158 159 159 161 160 161 160 161 166 169 170 174 177 175 172
114 127 136 133 120 147 155 145 134 129 137 139 133 135 142 152 147 140 134 143 167 173 166 156 156 158 164 167 160 159 162 163 164 161 159 162 165 169 173 173 171 172 173 174
86 95 111 111 93 110 125 129 130 127 137 140 144 153 158 156 149 141 137 149 189 153 146 148 152 159 159 156 153 157 161 161 162 164 165 167 167 171 176 176 174 176 175 174
53 51 59 113 104 94 76 103 121 123 118 131 138 141 141 143 144 137 147 167 168 149 141 146 153 154 152 147 149 155 159 160 162 162 165 168 169 172 172 169 171 175 176 175
43 45 49 78 124 114 61 77 118 136 144 149 150 154 155 157 156 152 166 182 149 145 142 149 147 143 144 143 145 151 155 160 164 165 164 167 166 164 164 166 171 172 171 173
31 31 32 64 85 92 89 66 73 112 138 140 154 156 148 138 121 128 144 144 142 140 137 143 140 139 138 133 135 140 146 153 156 155 153 150 152 156 159 163 163 164 164 164
90 61 66 89 98 129 155 115 89 88 112 116 121 124 126 137 146 150 137 140 138 131 124 136 140 139 138 131 134 134 134 136 142 146 147 146 150 151 151 153 156 158 161 163
112 118 172 176 171 176 169 141 134 146 127 117 104 102 104 106 118 120 123 131 134 134 133 135 136 135 132 129 130 131 133 137 141 139 138 141 140 141 141 139 141 147 153 160
34 26 38 35 27 138 146 139 136 135 132 134 131 125 121 119 115 117 118 123 130 128 124 126 127 127 124 126 126 127 130 135 138 138 139 136 137 140 144 142 142 142 146 150